Погода в Шепси

Россия / Краснодарский край     44°02′30″N   39°08′58″E
темп.,
°C
ветер,
м/с
пор.,
м/с
влажн.,
%
обл.,
%
осадки,
мм/ч
давл.,
гПа
погр.,
м
1 июля, пт
пт100:00+21вюв23840 0.0 1011126
03:00+20всв22835 0.1 101195
06:00+21всв22741 0.1 101183
09:00+23зюз3272100 0.3 1011373
12:00+22зюз337718 0.0 1012585
15:00+23зюз33630 0.1 1011456
18:00+24зюз13600 0.0 1010284
21:00+22всв34640 0.0 101072
2 июля, сб
сб200:00+20св22630 0.0 101261
03:00+20всв22640 0.0 101274
06:00+19св44660 0.0 1011116
09:00+24с46500 0.0 1011455
12:00+25с78450 0.0 1012551
15:00+25с911370 0.0 1011590
18:00+23ссв810420 0.0 1012588
21:00+19св610510 0.0 1013426
3 июля, вс
вс300:00+19св610490 0.0 1014585
03:00+18св56540 0.0 1014152
06:00+17св55590 0.0 1015145
09:00+22св13420 0.0 1015565
12:00+22юз32480 0.0 1016719
15:00+23ю23480 0.0 1015897
18:00+24сз16530 0.0 1014448
21:00+20вюв32660 0.0 1016126
4 июля, пн
пн400:00+19св22570 0.0 101692
03:00+18всв32550 0.0 101697
06:00+18всв22590 0.0 101697
09:00+21зюз22600 0.0 1016451
12:00+21зюз54694 0.0 1016712
15:00+22зюз436814 0.0 1015540
18:00+22з336943 0.0 1015260
21:00+21юв12750 0.0 101577
5 июля, вт
вт500:00+19в33750 0.0 1015100
03:00+19всв22660 0.0 101695
06:00+19всв22630 0.0 101679
09:00+22юз32670 0.0 1016340
12:00+22юз53700 0.0 1016662
15:00+23зюз44713 0.0 1014422
18:00+23юз43760 0.0 1013376
21:00+21юв34810 0.0 1013176